Regional Weather Roundup
Issued by NWS Jackson, KY

Home | Current Version | Previous Version | Text Only | Print | Product List | Glossary Off
Versions: 1 2 3 4 5 6 7 8 9 10 11 12 13 14 15 16 17 18 19 20 21 22 23 24 25 26 27 28 29 30 31 32 33 34 35 36 37 38 39 40 41 42 43 44 45 46 47 48 49 50

000
ASUS43 KJKL 110710
RWRJKL

EAST KENTUCKY HOURLY WEATHER ROUNDUP
NATIONAL WEATHER SERVICE JACKSON KY
200 AM EST SUN DEC 11 2016

NOTE: "FAIR" INDICATES FEW OR NO CLOUDS BELOW 12,000 FEET WITH
NO SIGNIFICANT WEATHER AND/OR OBSTRUCTIONS TO VISIBILITY.

* THESE REPORTS ARE NOT UNDER NWS QUALITY CONTROL AND MAY NOT
  REPORT WEATHER SUCH AS PRECIPITATION AND FOG.

KYZ079-080-083-085-087-088-110-112-115-119-120-110800
...EASTERN KENTUCKY...

CITY           SKY/WX    TMP DP  RH WIND       PRES   REMARKS
JACKSON        CLOUDY    28  14  55 SE3       30.34F
LONDON         CLOUDY    24  17  74 CALM      30.36F
SOMERSET*      PTCLDY    25  18  74 CALM      30.39R
MONTICELLO*    CLOUDY    26  17  68 NW8       30.38F WCI  18
MIDDLESBORO*   CLOUDY    23  20  87 CALM      30.39S
HARLAN APT*    MOSUNNY   27  19  74 CALM      30.35F
PIKE CO APT*     N/A     27  17  67 CALM      30.35S
BIG SANDY APT* CLOUDY    28  19  68 CALM      30.37S
MOREHEAD APT*  CLOUDY    28  14  54 VRB3      30.37F
ASHLAND*       CLOUDY    30  18  59 CALM      30.39F
$$

KYZ035-036-041-042-044-050-067-078-099-110800
...CENTRAL KENTUCKY...

CITY           SKY/WX    TMP DP  RH WIND       PRES   REMARKS
MT STERLING*   CLOUDY    30  19  64 CALM      30.36F
FLEMING/MASON* CLOUDY    27  19  72 E3        30.38S
DANVILLE*      MOCLDY    27  19  74 S6        30.35F WCI  20
LEXINGTON      PTCLDY    28  15  58 SE8       30.33F WCI  20
FRANKFORT      CLOUDY    30  16  56 SE7       30.32F WCI  23
LOUISVILLE     CLOUDY    31  16  54 SE5       30.31F WCI  26
LEBANON*         N/A     28  16  59 SE7       30.33S WCI  21
GLASGOW*       CLOUDY    28  18  67 CALM      30.33F
BOWLING GREEN  PTCLDY    24  18  77 CALM      30.33F
$$

KYZ091>093-OHZ055-061-077-WVZ005-015-034-035-042-110800
...SOUTHERN OHIO/WEST VIRGINIA...

CITY           SKY/WX    TMP DP  RH WIND       PRES   REMARKS
COVINGTON      CLOUDY    29  17  61 E6        30.35S WCI  23
COLUMBUS       LGT SNOW  25  23  92 CALM      30.41S VSB 1
DAYTON         LGT SNOW  24  22  91 E8        30.36F FOG     WCI  15
WILMINGTON     CLOUDY    26  19  74 NE5       30.38S WCI  20
HUNTINGTON     CLOUDY    27  17  66 E5        30.38F WCI  22
CHARLESTON     CLOUDY    27  17  66 CALM      30.40S
PINEVILLE*       N/A     26  17  69 MISG      30.40S
BECKLEY        CLOUDY    26   9  48 SE6       30.32S WCI  19
BLUEFIELD      CLOUDY    28   5  37 S9G18     30.30F WCI  19
LOGAN CO APT*    N/A     28  16  59 CALM      30.34F
$$

VAZ002-007-008-TNZ017-027-036-066-071-110800
...SOUTHWEST VIRGINIA/EAST TENNESSEE...

CITY           SKY/WX    TMP DP  RH WIND       PRES   REMARKS
WISE*          PTCLDY    28  12  50 CALM      30.31S
JONESVILLE*      N/A     23  19  86 CALM      30.39F
ABINGDON*      CLOUDY    28  15  56 E3        30.35S
BRISTOL        CLOUDY    23  16  74 CALM      30.38R
MORRISTOWN*    SUNNY     27  16  63 CALM      30.35F
SEVIERVILLE*   SUNNY     19  16  86 CALM      30.38S
KNOXVILLE      CLOUDY    26  17  68 S3        30.39S
OAK RIDGE      CLOUDY    25  19  78 CALM      30.40F
CROSSVILLE     CLOUDY    27  13  55 S3        30.34S
NASHVILLE      CLOUDY    28  17  63 E3        30.35F
$$

...KEY TO REMARKS...
VSB - VISIBILITY IN MILES
WCI - WIND CHILL INDEX
HX  - HEAT INDEX

$$



USA.gov is the U.S. government's official web portal to all federal, state and local government web resources and services.